Location: Caramacate
(10.0289°N, 66.7587°W)
Time: 20:48:39
(UTC+00:00)

Cosmos 2228 - Pass Details

Date: 05 August 2024
Orbit: 575 x 602 km, 82.5° (Epoch: 07 September)

Event Time Altitude Azimuth Distance (km) Brightness Sun altitude
Rises 23:21:41 0° 17° (NNE) 2,786 6.4 -8.6°
Reaches altitude 10° 23:24:16 10° 33° (NNE) 1,893 5.4 -9.2°
Maximum altitude 23:27:31 22° 84° (E) 1,295 4.2 -9.9°
Enters shadow 23:30:16 12° 131° (SE) 1,754 4.8 -10.6°
